Flag for Norway Weather past 2 weeks in Bardufoss, Norway

Now
36 °F

Snow flurries. Passing clouds.


Feels Like: 24 °F
Forecast: 29 / 39 °F
Wind: 21 mph from West

Location: Bardufoss


UV Index: 0 (Low)

Visibility: 5 mi


Pressure: 30.04 "Hg

Humidity: 75%

Dew point: 28 °F

Location of BardufossLocation

Historic Weather in Bardufoss

°F

Bardufoss temperature yesterday

Maximum temperature yesterday: 46 °F (at 1:20 PM)
Minimum temperature yesterday: 36 °F (at 5:50 PM)
Average temperature yesterday: 41 °F

Past Weeks' High & Low Weather Summary

 TemperatureHumidityPressure
High50 °F (Apr 13, 2:20 PM)93% (Apr 5, 12:50 AM)30.07 "Hg (Apr 5, 12:50 AM)
Low14 °F (Apr 9, 5:20 AM)40% (Apr 13, 2:20 PM)29.00 "Hg (Apr 13, 4:50 AM)
Average34 °F70%29.62 "Hg
* Reported Apr 5 12:50 AM — Apr 20 12:50 AM, Bardufoss, Weather by CustomWeather, © 2014

Note: Actual official high and low records may vary slightly from our data, if they occured in-between our weather recording intervals... More about our weather records

Advertising

Historic Weather Conditions — Data for Previous 24 hours

 ConditionsComfort  
Time TempWeatherWind HumidityBarometerVisibility
12:50 AM
Apr 20
34 °FSnow showers. Dense fog.23 mph87%30.01 "Hg1 mi
11:50 PM
Apr 19
37 °FSnow flurries. Passing clouds.21 mph60%29.95 "HgN/A
9:50 PM39 °FScattered showers. Partly sunny.18 mph56%29.89 "HgN/A
8:50 PM39 °FScattered showers. Partly sunny.17 mph56%29.83 "HgN/A
7:50 PM37 °FSprinkles. Partly sunny.16 mph75%29.80 "HgN/A
6:50 PM37 °FSprinkles. Partly sunny.15 mph81%29.77 "HgN/A
6:20 PM39 °FScattered showers. Partly sunny.16 mph70%29.74 "HgN/A
5:50 PM36 °FSprinkles. Partly sunny.20 mph87%29.77 "HgN/A
5:20 PM41 °FSprinkles. Partly sunny.23 mph57%29.74 "HgN/A
4:50 PM43 °FScattered showers. Partly sunny.15 mph57%29.71 "HgN/A
4:20 PM41 °FScattered showers. Partly sunny.17 mph66%29.71 "HgN/A
3:50 PM39 °FScattered showers. Partly sunny.15 mph75%29.71 "HgN/A
3:20 PM39 °FSprinkles. Partly sunny.17 mph75%29.71 "HgN/A
2:50 PM39 °FScattered showers. Partly sunny.20 mph75%29.68 "HgN/A
2:20 PM37 °FMixture of precip. Partly sunny.22 mph81%29.71 "HgN/A
1:50 PM45 °FSprinkles. Partly sunny.18 mph57%29.65 "HgN/A
1:20 PM46 °FScattered showers. Scattered clouds.14 mph53%29.62 "HgN/A
12:50 PM43 °FSprinkles. Partly sunny.20 mph71%29.59 "HgN/A
12:20 PM45 °FScattered showers. Broken clouds.15 mph66%29.59 "HgN/A
11:50 AM43 °FSprinkles. Broken clouds.8 mph66%29.59 "HgN/A
11:20 AM43 °FSprinkles. Broken clouds.13 mph71%29.59 "HgN/A
10:50 AM41 °FSprinkles. Partly sunny.5 mph76%29.59 "HgN/A
10:20 AM43 °FSprinkles. Partly sunny.9 mph71%29.56 "HgN/A
9:50 AM43 °FSprinkles. Partly sunny.12 mph71%29.56 "HgN/A
9:20 AM43 °FSprinkles. Partly sunny.3 mph71%29.56 "HgN/A
8:50 AM41 °FSprinkles. Partly sunny.17 mph81%29.56 "HgN/A
8:20 AM45 °FSprinkles. Partly sunny.20 mph66%29.56 "HgN/A
7:50 AM43 °FPartly sunny.5 mph71%29.53 "HgN/A
7:20 AM43 °FPartly sunny.5 mph71%29.53 "HgN/A
6:50 AM43 °FScattered showers. Partly sunny.6 mph66%29.53 "HgN/A
6:20 AM43 °FScattered showers. Broken clouds.3 mph66%29.53 "HgN/A
5:50 AM45 °FScattered showers. Broken clouds.14 mph61%29.53 "HgN/A
4:50 AM43 °FScattered showers. Partly cloudy.6 mph71%29.53 "HgN/A
3:50 AM43 °FScattered showers. Partly cloudy.12 mph66%29.53 "HgN/A
2:50 AM41 °FScattered showers. Partly cloudy.10 mph70%29.53 "HgN/A
Weather by CustomWeather, © 2014

See weather overview